| time (UTC) | temp F | wind direction | speed MPH | gust MPH | rain 1hr in | rain 24hr in | rain mn in | humidity % | barometer mb |
| 20260504050136 | 58 | 111 | 2.0 | 5.0 | 0.00 | 0.00 | 0.00 | 40 | 999.4 |
| 20260504044559 | 58 | 178 | 1.0 | 6.0 | 0.00 | 0.00 | 0.00 | 41 | 999.7 |
| 20260504043101 | 58 | 181 | 1.0 | 4.0 | 0.00 | 0.00 | 0.00 | 41 | 1000.1 |
| 20260504041601 | 58 | 192 | 1.0 | 4.0 | 0.00 | 0.00 | 0.00 | 41 | 1000.4 |
| 20260504040105 | 58 | 173 | 1.0 | 4.0 | 0.00 | 0.00 | 0.00 | 41 | 1000.8 |
| 20260504034558 | 58 | 153 | 1.0 | 3.0 | 0.00 | 0.00 | 0.00 | 41 | 1001.2 |
| 20260504033058 | 58 | 168 | 1.0 | 2.0 | 0.00 | 0.00 | 0.00 | 41 | 1001.6 |
| 20260504031624 | 58 | 169 | 0.0 | 3.0 | 0.00 | 0.00 | 0.00 | 41 | 1002.0 |
| 20260504030058 | 59 | 155 | 0.0 | 2.0 | 0.00 | 0.00 | 0.00 | 41 | 1002.3 |
| 20260504024559 | 59 | 160 | 1.0 | 4.0 | 0.00 | 0.00 | 0.00 | 40 | 1002.6 |
| 20260504023100 | 60 | 186 | 0.0 | 2.0 | 0.00 | 0.00 | 0.00 | 38 | 1002.8 |
| 20260504021610 | 61 | 0 | 0.0 | 0.0 | 0.00 | 0.00 | 0.00 | 37 | 1002.9 |
| 20260504020106 | 63 | 0 | 0.0 | 0.0 | 0.00 | 0.00 | 0.00 | 34 | 1003.0 |
| 20260504014600 | 64 | 0 | 0.0 | 1.0 | 0.00 | 0.00 | 0.00 | 32 | 1003.2 |
| 20260504013113 | 65 | 0 | 0.0 | 4.0 | 0.00 | 0.00 | 0.00 | 31 | 1003.3 |
| 20260504011600 | 66 | 250 | 2.0 | 8.0 | 0.00 | 0.00 | 0.00 | 29 | 1003.4 |
| 20260504010120 | 66 | 270 | 4.0 | 12.0 | 0.00 | 0.00 | 0.00 | 29 | 1003.5 |
| 20260504004600 | 67 | 244 | 5.0 | 10.0 | 0.00 | 0.00 | 0.00 | 28 | 1003.5 |
| 20260504003057 | 68 | 269 | 3.0 | 10.0 | 0.00 | 0.00 | 0.00 | 26 | 1003.6 |
| 20260504001611 | 69 | 0 | 2.0 | 11.0 | 0.00 | 0.00 | 0.00 | 27 | 1003.9 |
| 20260504000111 | 69 | 252 | 2.0 | 8.0 | 0.00 | 0.00 | 0.00 | 27 | 1003.9 |
| 20260503234558 | 68 | 331 | 4.0 | 10.0 | 0.00 | 0.00 | 0.00 | 27 | 1004.1 |
| 20260503233058 | 69 | 257 | 4.0 | 10.0 | 0.00 | 0.00 | 0.00 | 25 | 1004.2 |
| 20260503231600 | 69 | 250 | 4.0 | 9.0 | 0.00 | 0.00 | 0.00 | 25 | 1004.3 |
| 20260503230059 | 70 | 250 | 3.0 | 10.0 | 0.00 | 0.00 | 0.00 | 26 | 1004.3 |
| 20260503224558 | 70 | 278 | 5.0 | 11.0 | 0.00 | 0.00 | 0.00 | 25 | 1004.5 |
| 20260503223057 | 70 | 325 | 4.0 | 13.0 | 0.00 | 0.00 | 0.00 | 24 | 1004.5 |
| 20260503221600 | 70 | 256 | 5.0 | 11.0 | 0.00 | 0.00 | 0.00 | 23 | 1004.6 |
| 20260503220105 | 71 | 198 | 3.0 | 13.0 | 0.00 | 0.00 | 0.00 | 27 | 1004.9 |
| 20260503214559 | 71 | 272 | 5.0 | 14.0 | 0.00 | 0.00 | 0.00 | 26 | 1005.1 |
| 20260503213133 | 71 | 340 | 5.0 | 10.0 | 0.00 | 0.00 | 0.00 | 27 | 1005.1 |
| 20260503211621 | 71 | 295 | 5.0 | 11.0 | 0.00 | 0.00 | 0.00 | 26 | 1005.3 |
| 20260503204619 | 71 | 272 | 4.0 | 15.0 | 0.00 | 0.00 | 0.00 | 26 | 1005.7 |
| 20260503203115 | 71 | 301 | 5.0 | 13.0 | 0.00 | 0.00 | 0.00 | 25 | 1005.9 |
| 20260503201559 | 72 | 148 | 2.0 | 9.0 | 0.00 | 0.00 | 0.00 | 25 | 1006.2 |
| 20260503194601 | 70 | 306 | 4.0 | 16.0 | 0.00 | 0.00 | 0.00 | 26 | 1006.5 |
| 20260503193059 | 70 | 360 | 5.0 | 9.0 | 0.00 | 0.00 | 0.00 | 27 | 1006.6 |
| 20260503191605 | 69 | 238 | 3.0 | 10.0 | 0.00 | 0.00 | 0.00 | 28 | 1006.8 |
| 20260503190057 | 69 | 18 | 3.0 | 14.0 | 0.00 | 0.00 | 0.00 | 25 | 1007.2 |
| 20260503184634 | 69 | 278 | 3.0 | 9.0 | 0.00 | 0.00 | 0.00 | 25 | 1007.2 |
| 20260503183105 | 69 | 292 | 3.0 | 12.0 | 0.00 | 0.00 | 0.00 | 26 | 1007.4 |
| 20260503181557 | 68 | 317 | 4.0 | 13.0 | 0.00 | 0.00 | 0.00 | 26 | 1007.5 |
| 20260503180058 | 68 | 340 | 4.0 | 13.0 | 0.00 | 0.00 | 0.00 | 26 | 1007.7 |
| 20260503174616 | 67 | 19 | 3.0 | 12.0 | 0.00 | 0.00 | 0.00 | 27 | 1007.8 |
| 20260503173130 | 67 | 340 | 5.0 | 16.0 | 0.00 | 0.00 | 0.00 | 28 | 1007.8 |
| 20260503171559 | 67 | 5 | 6.0 | 10.0 | 0.00 | 0.00 | 0.00 | 29 | 1008.1 |
| 20260503100107 | 50 | 0 | 0.0 | 3.0 | 0.00 | 0.00 | 0.00 | 60 | 1004.9 |
| 20260503090110 | 53 | 0 | 0.0 | 3.0 | 0.00 | 0.00 | 0.00 | 55 | 1004.6 |
| 20260503081601 | 54 | 0 | 0.0 | 2.0 | 0.00 | 0.00 | 0.00 | 53 | 1004.5 |